STARLINK-1771, 46384

Orbit data source: Space-Track

STARLINK-1771, 46384 is a payload satellite owned by SpaceX/Seattle (US) in LEO that was launched on Thu, 03 Sep 2020 UTC via an FALCON 9 launch vehicle from the Air Force Eastern Test Range (AFETR). Payload-class satellites include a variety of spacecraft equipped with specific instruments for various scientific and technological missions. These include communications satellites like Starlink; space stations such as the ISS; scientific satellites like the Hubble; Earth observation satellites from companies like Planet Labs, Umbra, and HawkEye 360; GPS; miniature CubeSats for education and research; and military/defense satellites.

Loading next visibility...
Identifier
46384, 2020-062BM
Orbit
LEO
Country
Flag of USUS
Related business
Manufacturer
SpaceX/Seattle
Mission
Partially operational Commercial Communications
Bus & Motor
STARLINK, Unknown motor
Mass
260 kg wet, ~248 kg dry
Launch date (UTC)
2020-09-03 (6 years ago)
Launch vehicle
FALCON 9
Launch site
Air Force Eastern Test Range (AFETR)
Object type
Payload
Rocket body
Debris
Shape & HBR
Box + 1 Pan, 10.1 m
Radar Cross Section
13.562 m², Large (>1 m²)

Expand to show TLE details & history
Last TLE update: 7 hours ago

TLE from 7 hours ago
0 STARLINK-1771
1 46384U 20062BM  26121.13519757  .00095455  00000-0  14561-2 0  9992
2 46384  53.0378  94.1658 0009282  67.7847 292.4146 15.53658661312871
Epoch: 2026-05-01T03:14Z
TLE epoch observation values (Epoch: 2026-05-01T03:14:41.070Z)
Latitude
-0.00001°
Longitude
-173.57713°
Altitude
404.554 km
Speed
7.671 km/s
True Right ascension
06h 16m 39s
True Declination
0° 00' 00"
Sunlit
Object was in daylight at epoch
Visualization orbit readout
Latitude
Unknown
Longitude
Unknown
Altitude
Unknown
Speed
Unknown
Apparent Right ascension
Unknown
Apparent Declination
Unknown
Sunlit
N/A
Visualization observer readout
Local Sidereal Time
18:11:17
Azimuth
Unknown
Elevation
Unknown
Doppler factor
Unknown
Orbital elements
Apogee altitude
412.631 km
Perigee altitude
400.036 km
Semi-major axis
6,784.47 km
Eccentricity
0.00093
Inclination
53.0378°
RAAN
94.1658°
Arg. of periapsis
67.7847°
True anomaly
292.31623°
Mean anomaly
292.4146°
Eccentric anomaly
292.36542°
Mean motion
3.88391 °/min
Orbital period
92.69 mins
BSTAR
0.0014561
Loading maneuver chart data...
Computing Atmospheric mass density...
Loading historical data...
Loading historical data...
Loading historical data...
Loading historical data...
Loading historical data...
Loading historical data...
Loading historical data...

Documentation

Showing up to 5 results
|